Theta_e
314 316 318 321 323 325 327 328 327 326 321 315 315 317 319 321 319 318 318 318 320 319 318 320 323 323 323 322 322 327 327 327 329 332 343 345 341 342 342 341 342 342 342 339 338 339 339 340 340 340 339 340 340 340 339 338 339 339 337 336 334 332 330 331 332 332 331 329 326 325 326 329 331 331 331 331 330 330 330 330 330 331 334 335 335 335 332 329 327 325 327 326 327 327 324 322 321
317 319 322 324 324 326 329 329 325 321 317 313 315 317 318 320 320 320 320 321 320 319 319 319 322 323 322 321 319 326 330 332 336 338 342 341 341 342 341 342 342 342 342 339 337 338 339 340 340 339 339 339 339 340 340 339 338 337 336 335 334 332 330 332 332 332 331 328 324 323 326 328 330 331 331 331 331 330 330 330 330 331 333 335 335 334 330 329 328 327 327 328 328 327 324 322 319
318 320 323 324 325 326 329 327 322 317 314 313 315 318 319 320 321 323 322 320 320 319 321 319 322 323 321 323 320 325 331 334 338 339 340 341 341 341 341 342 342 343 342 340 339 338 339 339 339 338 338 338 338 339 340 339 336 333 333 333 333 332 331 333 333 332 330 325 321 320 323 326 329 331 331 331 330 330 330 329 331 332 333 334 335 333 330 329 330 329 328 328 326 324 323 321 320
318 320 323 324 329 328 330 327 323 316 313 313 313 318 320 321 323 322 321 320 320 320 321 319 322 322 322 325 321 327 333 335 338 338 340 341 340 341 341 341 341 343 342 342 341 339 338 338 338 338 338 336 334 337 339 336 332 329 331 334 333 332 332 333 332 333 330 322 319 317 318 324 329 330 331 331 330 330 329 330 331 332 333 333 333 332 331 330 330 330 329 326 322 322 321 320 323
320 325 324 324 331 329 327 324 320 317 314 315 314 319 321 322 323 320 320 320 319 320 320 319 323 322 321 323 324 330 333 335 338 338 339 340 340 340 341 341 341 342 342 342 342 341 338 338 338 338 339 336 332 333 336 333 329 326 330 335 334 332 332 333 333 333 331 324 320 317 313 318 327 330 330 330 329 330 328 330 332 331 332 331 332 331 331 331 330 330 329 323 320 321 320 320 324
323 327 325 323 328 325 325 321 317 316 317 319 317 319 321 321 321 319 319 319 319 320 319 320 321 320 322 324 327 330 331 334 337 338 340 340 339 340 341 341 341 341 341 342 342 340 339 338 338 338 339 338 333 328 330 329 327 326 328 334 334 332 332 332 333 333 332 326 321 319 313 313 324 330 330 330 329 329 328 330 331 331 331 331 331 331 332 332 331 329 326 321 320 321 318 321 325
324 327 328 326 327 325 326 321 317 318 318 321 319 319 320 320 321 320 319 318 318 318 318 320 318 319 323 324 328 331 332 335 338 339 340 340 339 340 341 341 340 341 341 342 342 340 338 338 337 338 339 339 335 327 327 327 326 325 327 334 335 333 332 332 333 333 332 327 322 320 314 311 321 330 330 329 329 329 328 330 331 330 331 330 331 331 331 330 329 328 325 322 321 321 318 321 325
323 328 329 327 328 326 324 321 319 321 319 319 320 319 319 320 321 319 319 318 318 318 317 318 317 319 321 323 330 331 334 337 339 339 340 340 340 340 341 341 340 341 342 342 342 339 338 338 337 338 339 338 337 332 328 326 325 324 328 334 335 334 334 333 333 333 332 327 323 319 315 310 317 328 330 329 329 328 328 329 330 330 330 331 331 330 329 328 328 327 325 323 322 322 320 322 324
324 327 328 326 327 324 320 320 319 320 319 319 319 319 319 319 320 318 319 318 317 318 317 317 318 319 319 325 330 330 334 337 337 338 339 339 340 340 341 341 340 341 342 342 341 339 337 338 337 338 339 338 338 337 332 326 325 324 328 335 335 335 335 334 332 331 331 328 324 320 316 310 312 324 329 329 328 328 328 329 329 329 330 330 330 329 328 327 327 326 325 323 322 321 321 323 324
324 324 326 326 325 320 315 318 321 321 320 320 318 318 318 318 319 319 318 318 317 318 319 319 318 318 317 325 329 329 333 335 336 337 337 338 340 340 340 340 340 341 342 343 341 338 337 337 337 337 338 338 338 338 335 328 325 323 328 334 335 335 334 334 332 331 331 328 324 320 316 310 308 315 324 328 328 327 328 328 329 329 329 328 327 327 326 326 326 325 324 322 320 320 321 323 324
326 323 324 326 321 317 314 317 321 321 319 319 318 317 318 318 318 319 318 318 317 319 319 318 318 317 316 326 330 331 332 334 336 337 337 338 339 339 340 340 340 341 342 343 341 338 337 337 337 337 337 337 338 338 336 331 325 324 328 334 335 335 334 333 333 331 331 329 325 321 316 311 306 309 319 326 328 327 327 327 327 327 327 326 326 325 325 325 324 323 323 321 317 319 321 322 323
330 328 324 322 321 319 317 318 319 321 320 318 318 317 318 317 318 317 317 317 316 318 319 317 318 317 316 326 331 331 332 334 335 336 337 338 338 338 340 341 341 341 342 342 341 339 337 337 337 337 337 338 338 337 337 333 327 325 328 333 334 334 334 334 333 332 331 330 327 321 317 312 307 308 314 321 326 326 326 326 326 326 326 325 325 325 324 323 323 323 323 321 317 318 319 319 322
330 331 325 321 325 324 318 319 320 321 321 319 318 318 318 317 318 317 316 316 316 317 318 317 317 317 319 327 330 329 329 333 336 336 337 338 338 338 339 340 341 341 342 342 340 341 339 337 337 336 337 337 338 338 337 334 328 325 328 332 333 334 333 334 333 332 331 330 328 322 317 312 307 307 311 318 323 324 324 324 325 325 325 325 324 324 323 323 323 322 322 321 317 316 316 317 321
330 331 327 324 327 324 320 320 320 319 318 320 318 318 318 317 317 317 316 316 316 317 318 317 317 317 320 325 328 327 328 334 337 336 337 338 337 338 340 340 340 340 341 342 342 342 340 338 337 337 336 337 337 337 337 336 331 328 330 332 332 333 334 334 333 333 332 330 328 324 319 313 308 307 310 313 317 319 321 322 322 322 322 322 322 322 321 320 321 321 321 319 317 315 314 315 320
331 330 326 325 324 322 321 321 321 319 318 319 318 317 317 317 317 317 316 316 317 317 317 317 317 317 319 325 327 325 330 336 336 336 337 338 338 339 340 340 341 340 341 341 342 342 341 339 339 338 336 336 337 337 337 336 334 330 330 331 331 332 334 333 333 333 332 330 329 326 321 316 311 309 308 308 310 312 315 315 314 314 314 314 313 314 314 314 319 321 319 316 315 314 312 313 317
328 328 326 323 320 320 321 321 322 319 318 318 317 317 316 316 317 316 316 316 316 317 316 316 318 317 320 330 330 328 333 336 335 335 337 338 338 339 340 341 341 341 341 341 341 342 341 340 340 339 337 336 337 337 337 337 335 332 330 331 332 332 333 333 333 333 332 331 329 328 324 318 313 309 307 307 307 307 306 305 304 304 305 305 305 308 309 309 314 316 313 312 313 313 312 312 314
325 327 326 321 319 320 321 322 320 318 318 318 317 317 316 316 316 315 315 315 316 316 316 317 318 315 319 331 334 333 335 334 334 335 337 338 338 338 339 340 341 340 341 341 341 341 341 341 341 341 339 337 338 338 337 337 335 334 332 330 331 332 333 333 333 333 332 331 329 329 325 321 316 312 310 307 305 303 301 301 301 300 301 301 301 303 304 304 307 308 309 311 312 312 312 311 311
325 325 323 320 321 321 322 321 320 320 319 316 317 316 316 316 315 315 315 315 315 315 317 316 317 315 317 330 335 333 334 333 334 334 336 337 336 337 338 340 340 340 340 341 341 341 341 341 341 341 340 339 339 339 339 338 336 335 334 332 331 332 333 333 333 333 332 331 330 329 327 324 320 317 313 309 306 304 302 301 301 300 300 300 300 301 301 302 303 305 308 309 311 311 311 310 310
324 324 321 321 323 321 320 319 318 320 318 316 316 316 316 316 316 315 315 315 315 315 316 317 317 315 314 325 334 332 332 333 333 334 334 335 336 335 337 338 339 339 339 340 341 341 340 340 340 340 340 340 340 339 339 339 337 336 336 335 333 332 332 333 332 332 332 332 330 329 328 327 325 321 317 314 310 306 302 301 301 301 300 300 300 300 301 301 302 303 305 307 309 309 310 312 313
322 324 323 322 322 320 318 318 317 318 318 317 316 316 316 316 316 315 315 315 316 316 316 317 316 317 314 319 331 332 331 332 333 334 334 334 335 335 336 336 336 337 338 339 339 339 340 340 340 340 340 340 340 340 339 339 338 336 337 337 335 333 332 332 332 332 332 332 331 331 329 328 328 325 321 318 315 308 303 301 302 301 300 301 302 303 301 301 302 303 305 306 307 306 308 313 316
321 322 322 321 320 319 318 317 317 317 318 318 317 317 316 316 317 315 316 315 316 317 316 318 316 318 315 315 327 332 330 332 332 333 334 334 335 335 335 335 335 335 336 337 338 338 339 339 339 340 340 339 340 340 340 340 338 337 337 337 336 335 334 333 332 332 333 332 331 331 331 329 329 328 324 321 317 311 305 303 302 302 303 304 306 306 302 301 302 304 305 305 305 305 308 313 316
320 319 319 319 319 319 317 316 317 317 318 318 317 316 316 317 317 316 316 316 316 317 316 318 317 318 316 314 325 331 330 331 332 333 333 333 334 334 335 334 334 334 335 336 336 337 337 338 338 338 340 339 339 339 339 339 339 338 338 338 337 336 336 334 333 333 333 333 332 332 332 330 329 328 326 322 319 314 308 306 304 304 307 308 309 307 303 304 306 307 307 307 307 308 310 313 315
318 319 317 317 318 318 316 316 316 317 317 317 316 316 317 317 317 317 316 316 316 318 318 318 318 319 316 315 323 329 331 330 331 332 333 334 334 334 334 334 335 335 335 335 336 336 335 336 337 337 338 339 339 338 338 338 338 338 338 338 337 337 336 335 334 333 333 333 333 333 332 331 330 328 326 324 321 316 312 310 308 309 310 311 311 310 309 311 312 311 311 311 311 312 312 313 314
316 316 317 317 317 317 316 315 315 316 316 316 316 316 317 317 317 317 317 316 317 318 317 316 316 318 317 316 321 326 329 330 330 331 332 333 333 334 334 334 335 335 335 335 335 335 334 335 336 336 337 338 338 337 337 337 338 338 338 338 337 337 336 335 335 334 333 333 333 333 332 331 330 328 326 325 322 317 314 312 311 313 314 313 314 314 314 315 315 315 315 315 314 314 313 313 312
315 315 317 316 316 316 314 315 314 315 315 315 316 316 317 317 316 317 318 318 317 318 317 315 316 317 319 320 321 324 327 328 329 330 331 332 332 334 334 334 335 335 335 335 335 335 334 334 335 335 335 337 337 336 336 336 336 337 337 337 337 337 336 336 335 334 334 333 333 333 333 331 330 328 326 326 325 320 317 316 314 314 315 314 315 315 315 316 317 316 316 315 315 314 313 312 311
315 316 317 316 316 315 315 315 315 315 315 315 316 317 317 317 316 316 317 317 318 318 317 317 317 316 319 322 322 322 324 326 328 329 330 331 332 333 333 333 334 335 334 334 334 334 335 334 334 334 335 336 336 335 335 335 334 335 336 336 336 337 336 336 335 335 334 333 333 333 333 332 330 329 327 327 326 324 321 320 317 316 315 315 316 316 316 317 317 316 316 315 314 314 312 312 311
317 317 317 317 317 315 316 316 315 316 316 315 315 317 317 316 316 317 318 318 318 319 317 317 317 317 316 319 321 320 321 324 326 329 330 331 331 332 333 333 334 335 334 334 334 333 334 334 334 333 333 335 334 333 333 334 332 332 333 334 335 336 336 336 335 335 335 334 334 333 333 332 331 330 328 327 327 326 324 322 319 317 316 316 316 316 316 316 316 316 316 315 314 313 312 311 310
317 318 317 317 317 316 316 317 316 316 316 315 316 317 317 317 317 317 318 318 318 318 317 317 317 317 317 317 319 319 319 322 325 328 329 330 331 331 332 333 334 335 334 333 334 333 333 334 333 332 332 333 333 332 332 333 332 331 331 331 333 335 335 335 335 335 335 334 333 333 333 332 332 331 329 328 328 327 326 323 319 317 317 317 316 316 316 315 315 315 315 315 313 312 311 310 309
317 318 317 317 317 317 317 316 317 317 316 316 316 317 317 317 318 317 318 318 317 318 318 317 317 317 318 318 317 318 318 320 324 326 328 329 330 331 331 333 334 334 334 334 333 332 333 334 333 331 331 332 332 332 332 332 331 331 330 330 330 332 334 335 335 335 335 334 333 333 333 332 332 331 330 329 328 328 327 325 320 317 318 317 317 317 316 314 313 313 314 314 312 311 309 308 307
317 317 317 318 317 317 318 317 318 317 317 317 316 317 318 318 319 317 319 318 317 318 318 318 318 317 318 318 319 319 317 317 321 324 326 328 329 330 330 331 333 333 334 334 333 332 332 332 332 331 330 331 332 331 331 331 331 331 331 331 330 329 331 333 334 334 334 334 333 333 334 333 332 331 331 330 329 328 327 327 323 318 318 318 317 318 316 314 313 313 313 311 310 309 308 307 306
317 317 317 319 317 316 318 318 318 317 316 317 316 317 317 317 319 319 319 318 317 318 318 318 319 318 319 320 320 320 318 316 318 321 324 326 327 329 330 330 332 332 332 333 333 332 332 331 331 330 329 330 332 331 331 331 331 331 331 331 330 329 328 330 333 333 334 334 334 334 334 333 332 332 332 331 330 328 327 328 325 320 319 318 317 318 317 314 313 313 312 310 307 307 307 305 304
318 317 317 319 317 318 319 317 318 317 316 316 317 318 318 317 319 319 318 318 317 318 318 319 319 319 319 321 320 320 319 316 315 318 322 324 326 327 328 329 330 332 331 331 331 332 332 331 330 329 329 330 331 330 329 329 330 329 328 328 329 329 328 329 331 332 333 334 333 334 333 333 333 332 332 332 331 330 328 328 326 322 319 319 318 317 317 315 314 312 310 310 308 305 305 303 302
318 317 317 318 318 318 319 317 317 318 317 316 317 318 318 318 318 318 318 318 318 318 318 318 320 320 320 321 320 320 319 318 316 316 318 322 324 326 327 327 327 329 330 330 330 330 331 331 329 329 329 329 329 328 327 328 330 329 327 327 327 328 328 329 330 331 332 333 333 333 333 332 333 332 332 332 331 331 329 328 328 324 320 320 319 317 316 315 314 312 308 308 309 305 304 303 300
319 318 317 319 319 317 317 317 318 317 317 317 318 318 318 318 318 318 318 318 318 319 319 319 320 321 322 322 321 321 319 320 319 316 316 318 320 322 324 324 325 326 328 328 328 328 329 329 330 328 328 328 328 328 328 329 329 328 326 326 326 327 327 328 328 330 331 331 331 332 332 332 332 332 331 332 332 331 330 329 329 326 322 322 321 318 316 315 313 313 309 306 308 307 305 305 300
319 319 317 318 319 318 317 318 318 317 317 318 318 318 318 318 318 318 319 319 319 320 319 320 320 320 320 322 322 322 321 321 319 316 316 316 316 317 319 321 323 324 325 326 326 326 326 328 329 328 327 328 328 329 328 328 328 327 326 326 326 326 326 327 327 328 328 329 330 330 331 331 331 330 331 332 332 331 331 330 329 327 324 322 322 319 316 314 312 312 311 307 305 305 305 306 302
319 320 318 318 318 318 318 318 317 317 318 318 318 318 317 318 318 318 318 319 319 319 320 320 320 320 319 320 321 322 323 322 319 317 317 316 316 316 316 318 320 321 323 324 324 324 325 326 328 327 326 326 326 327 326 326 325 325 325 325 325 325 325 325 326 327 326 326 327 329 330 330 331 330 331 332 332 331 331 330 329 328 326 324 322 319 316 316 314 312 311 308 304 301 301 303 301
318 319 319 318 318 316 317 318 316 316 317 317 318 318 317 317 317 317 318 320 320 319 319 319 320 321 320 320 320 321 322 321 319 319 318 317 316 316 316 316 317 320 321 321 322 322 323 324 325 325 325 324 324 324 324 324 323 323 323 323 323 323 323 324 324 326 326 325 325 327 328 328 329 330 331 332 331 331 331 330 330 328 326 324 323 321 319 318 316 314 310 307 305 302 299 299 299
318 318 318 318 318 317 318 318 316 315 317 317 317 317 316 317 318 318 319 318 318 318 318 318 319 319 320 321 321 321 321 320 324 324 319 317 316 316 315 315 315 317 319 319 319 320 321 321 323 323 323 323 323 322 323 322 322 322 321 321 321 321 321 321 323 324 324 324 324 325 328 328 329 330 331 331 330 331 331 330 330 328 325 323 322 321 319 316 313 312 309 305 304 303 301 298 299
319 319 318 319 321 319 317 318 317 315 317 317 318 318 316 316 317 316 317 317 317 318 317 318 319 319 320 321 320 322 322 325 331 330 320 316 316 315 315 314 314 315 316 318 318 318 320 320 321 322 322 322 322 322 321 321 320 320 320 320 319 319 319 320 321 322 322 324 324 324 326 329 330 330 330 330 330 330 331 330 329 329 327 324 322 319 316 315 312 309 308 306 303 301 300 298 300
320 320 318 320 323 321 317 316 317 317 316 317 319 319 317 317 318 317 316 316 315 317 319 319 322 322 321 322 322 324 325 327 332 331 323 317 316 315 314 314 314 314 315 316 317 317 318 319 320 320 321 320 321 321 320 320 319 319 319 319 318 318 319 319 319 319 321 322 323 323 325 328 329 330 330 329 330 330 329 330 329 328 328 326 323 320 317 315 313 310 308 307 304 301 298 297 299
322 323 320 320 322 320 318 318 318 317 318 320 321 321 321 320 320 319 318 319 317 318 320 320 324 327 326 326 327 328 328 329 330 330 327 319 315 315 314 314 314 313 314 315 315 316 317 318 319 319 320 319 319 319 319 319 319 319 318 318 318 318 318 318 318 319 321 321 321 322 324 327 327 329 329 328 329 329 329 329 328 327 327 326 323 320 319 316 314 311 309 308 307 306 301 297 297
319 324 324 320 319 319 320 321 321 317 318 321 320 322 326 322 317 317 316 320 321 321 322 322 324 327 327 327 327 328 330 330 330 330 327 320 315 315 314 313 313 313 313 314 314 315 316 317 318 319 319 319 318 318 318 318 318 318 318 317 318 318 317 318 318 319 320 320 320 321 322 323 325 327 327 327 327 328 328 328 327 327 326 325 323 321 320 317 314 312 311 309 308 309 306 299 296
315 322 325 320 319 322 321 321 321 319 320 321 319 320 323 318 312 315 316 317 321 323 324 323 322 323 324 324 325 326 327 329 330 329 327 322 316 315 314 313 313 313 312 313 313 314 315 316 317 318 318 318 318 318 318 318 318 317 317 317 316 317 317 317 317 317 318 319 320 319 319 320 322 324 325 325 326 327 328 327 327 327 326 325 324 323 321 318 316 314 312 312 309 308 309 303 298
319 326 325 320 318 323 323 320 321 323 322 322 320 319 322 319 313 315 318 318 320 321 321 322 322 321 321 324 328 329 328 332 334 332 329 324 317 314 315 314 313 313 312 312 313 313 314 315 316 317 318 318 318 318 317 318 317 317 317 316 315 315 316 316 316 315 315 316 318 318 317 318 320 322 323 323 325 326 327 327 326 326 325 325 324 323 321 319 318 315 312 311 309 306 308 308 303
323 326 324 322 322 325 325 322 322 324 324 325 325 321 324 326 319 315 319 317 317 320 320 320 320 320 321 324 330 332 331 333 334 332 329 322 317 315 315 315 314 313 312 312 312 313 313 314 315 316 317 317 317 317 317 317 317 317 316 316 315 315 315 315 315 315 314 315 316 316 316 317 319 320 322 323 324 324 325 325 325 325 324 324 323 322 321 319 317 315 311 308 306 305 306 308 306
324 324 323 324 325 325 325 324 322 324 326 328 329 324 322 326 320 314 317 316 317 321 320 321 322 325 327 329 331 332 331 329 327 328 325 319 316 316 315 314 314 313 313 312 312 312 313 313 315 316 316 316 316 316 317 317 317 316 316 315 315 314 314 314 314 315 316 315 315 316 315 316 318 320 321 322 323 323 323 323 323 323 323 323 323 322 319 318 316 314 311 308 305 305 305 305 306
323 325 325 324 325 324 324 325 322 322 326 328 327 324 319 323 322 316 315 317 319 321 318 321 325 326 328 331 332 329 329 329 326 325 321 315 314 315 314 314 313 313 312 312 312 312 312 313 314 315 315 316 316 316 316 316 316 316 315 315 314 313 313 313 313 315 317 316 316 316 316 316 318 319 319 319 320 321 321 321 321 322 323 323 322 321 319 318 317 315 312 310 307 306 305 303 305
325 325 323 321 323 324 323 324 323 323 325 324 325 324 320 322 323 317 316 319 319 319 318 320 325 327 329 331 330 326 328 328 325 325 322 316 315 313 312 312 312 312 312 312 312 312 312 312 313 314 314 315 315 315 315 315 315 315 315 314 314 313 313 313 314 315 317 317 316 316 316 317 317 317 318 318 319 320 319 318 318 319 321 321 321 321 320 319 317 316 313 311 309 308 306 304 303
325 322 320 318 320 323 324 326 329 327 322 321 322 322 321 320 319 318 319 319 318 318 320 321 323 328 332 331 328 326 328 327 325 326 323 320 317 311 310 311 311 311 311 311 311 311 312 312 312 313 314 314 315 314 314 315 315 314 314 314 313 313 313 313 314 315 316 317 316 316 316 316 316 316 316 318 319 319 318 317 316 318 319 320 320 320 319 319 317 316 314 312 310 309 308 306 304
322 321 322 322 319 319 322 324 327 326 321 322 322 321 322 319 316 319 320 317 318 318 320 325 325 325 329 332 332 329 328 326 327 328 326 325 319 311 309 310 310 310 310 310 310 311 311 311 312 312 313 313 314 314 314 314 314 314 313 313 313 312 312 313 314 315 316 316 315 315 315 315 315 316 316 318 319 319 319 318 317 318 320 319 319 319 318 318 317 317 316 314 313 311 309 307 304
320 319 321 323 320 317 318 320 322 325 323 321 321 321 324 320 315 319 320 319 322 320 321 324 324 323 325 328 330 329 329 328 329 330 329 328 320 314 314 312 311 311 310 310 310 310 310 311 311 312 312 313 313 314 314 313 313 313 313 312 312 311 312 312 313 314 316 316 315 314 314 315 315 315 316 317 319 320 319 319 319 320 320 318 318 317 317 316 316 315 314 314 312 310 307 305 304
320 319 320 323 322 316 317 320 320 321 321 322 324 324 324 320 316 318 318 319 321 321 323 322 322 324 324 327 329 330 330 329 330 331 330 327 319 316 317 315 312 312 310 310 310 309 310 310 311 311 311 312 312 313 313 313 313 312 312 312 311 311 311 311 312 313 314 315 314 314 314 314 314 314 315 316 318 319 320 321 321 321 320 318 317 317 316 316 315 314 312 311 309 308 306 304 304
320 322 322 322 323 317 317 321 320 318 317 320 323 322 318 315 315 317 316 316 315 317 321 320 320 322 323 328 329 328 328 329 330 330 330 327 319 316 317 315 314 312 311 311 310 309 310 310 311 311 311 312 312 312 313 313 312 312 311 311 311 311 311 311 311 311 313 313 313 314 313 313 313 314 314 315 316 318 319 320 320 320 319 318 317 317 316 315 314 313 312 310 309 308 307 305 304
323 326 323 320 323 321 318 320 321 320 319 317 317 315 312 311 315 318 316 316 315 316 318 318 320 322 323 327 327 328 332 333 331 329 329 326 318 315 316 314 314 313 311 311 310 309 310 310 310 310 311 311 312 312 312 312 312 311 311 311 311 311 310 310 310 311 311 312 312 312 312 312 313 313 314 314 314 315 316 317 317 318 318 317 317 315 315 315 314 313 312 311 310 309 307 305 305
322 323 321 321 324 324 320 318 317 318 318 317 316 314 313 312 313 315 314 317 319 318 318 318 319 321 323 326 327 330 336 335 334 333 333 329 318 314 314 313 312 312 311 311 310 309 310 310 310 310 310 310 311 312 312 312 312 311 311 310 310 310 310 310 310 310 310 311 311 311 312 312 312 312 312 313 313 313 314 315 316 317 317 316 315 314 315 314 312 312 311 310 309 308 306 305 304
321 320 320 322 323 323 323 319 316 316 316 316 316 315 315 313 313 314 315 317 318 318 319 320 319 321 325 327 329 333 337 337 336 334 335 331 319 313 314 312 311 311 310 310 310 310 310 310 310 310 310 310 310 311 312 312 312 311 310 310 310 309 310 310 310 310 310 310 310 311 311 311 311 311 311 311 311 312 313 315 315 315 315 315 314 314 314 312 310 309 309 308 307 306 305 304 304
321 321 321 322 321 322 324 322 318 318 317 316 316 315 314 313 314 316 315 317 320 321 323 324 322 322 324 326 329 334 339 341 337 332 335 334 321 314 314 312 310 310 310 310 310 309 310 309 309 310 310 310 310 310 311 311 311 311 310 310 309 309 309 309 309 309 309 309 309 310 310 310 310 310 311 311 311 312 313 313 313 313 313 314 313 312 312 311 309 307 306 305 305 304 304 303 303
318 317 318 320 320 321 322 321 319 319 317 316 317 317 314 313 317 319 316 318 324 325 324 322 320 318 320 327 335 336 338 342 338 330 333 333 320 313 313 311 310 309 309 309 309 309 310 309 309 309 310 310 310 310 311 311 311 311 310 310 309 309 309 309 309 309 309 308 308 309 309 309 309 309 310 311 311 311 311 311 311 311 311 311 310 310 310 309 308 306 304 303 303 303 302 302 302
Wind_Speed
6 4 4 6 6 8 7 4 2 2 3 1 4 4 3 4 4 4 5 3 2 4 4 4 5 6 2 3 4 8 7 5 3 1 2 7 16 16 15 20 21 19 15 15 16 14 13 13 13 12 13 13 13 14 14 14 13 12 12 12 11 11 11 12 12 12 13 13 15 16 17 17 17 17 17 17 17 17 17 17 18 18 17 17 18 18 17 17 18 18 19 20 19 19 20 21 22
5 4 4 7 7 5 3 3 1 3 3 3 4 5 4 3 3 5 7 5 4 3 4 5 5 4 1 2 1 5 8 8 7 4 6 15 17 14 17 19 20 19 15 15 16 14 14 13 13 12 12 12 12 13 13 13 12 11 11 11 11 11 11 12 12 12 12 13 15 15 16 17 17 17 17 17 17 17 17 18 18 17 16 17 18 18 18 19 19 19 20 20 19 19 20 22 24
5 4 3 6 7 4 2 1 2 4 1 5 4 3 5 4 5 9 8 7 6 4 5 3 3 3 3 2 3 4 5 6 9 7 8 15 13 13 19 18 18 19 16 17 15 15 14 14 13 12 12 11 11 12 12 11 11 11 11 11 12 12 12 12 12 12 12 13 15 15 16 16 17 17 17 17 17 17 17 18 18 15 15 17 18 18 19 19 19 19 19 19 19 19 20 23 26
6 2 1 4 3 3 2 2 3 4 3 3 3 2 4 7 8 9 7 6 5 3 3 2 2 2 3 3 4 4 5 6 9 9 7 12 14 17 19 18 18 17 18 17 14 15 15 14 14 13 13 11 11 11 11 11 10 11 12 12 12 12 12 12 12 12 12 13 14 15 15 17 17 17 17 17 17 17 17 18 17 16 16 17 18 18 19 19 19 19 18 17 18 19 21 24 26
4 2 2 4 2 1 1 2 2 3 4 2 4 3 5 9 9 8 6 5 5 4 3 1 2 1 2 3 3 2 4 5 9 12 7 11 20 20 18 18 17 16 18 18 15 15 15 15 15 14 13 12 11 12 11 11 11 11 13 13 12 12 12 11 11 12 12 13 13 14 15 16 17 17 17 17 17 18 18 18 17 16 16 17 17 18 18 18 19 18 16 16 19 20 22 24 26
6 4 5 4 1 1 1 2 1 5 3 4 4 3 7 9 9 8 7 6 5 5 3 2 2 1 3 3 5 4 2 4 8 11 11 14 21 19 18 19 16 16 17 18 15 14 16 15 15 15 14 13 12 12 12 12 12 12 13 13 12 12 11 11 11 11 12 12 13 13 14 16 17 17 17 16 17 17 18 18 17 16 17 17 18 17 17 18 18 16 15 16 19 20 22 25 26
7 4 3 3 1 0 2 2 3 5 3 5 4 4 8 8 8 8 7 5 3 4 2 3 2 2 2 2 5 6 6 7 7 10 15 17 19 17 17 17 15 16 16 17 14 14 17 15 16 15 14 14 12 12 13 13 13 12 13 13 12 12 11 11 10 11 11 12 12 12 13 15 17 17 17 16 16 16 17 17 16 16 17 17 17 17 16 16 16 16 15 17 18 20 23 25 26
4 3 1 1 2 2 3 1 5 4 2 4 5 5 8 8 6 7 5 4 2 3 2 0 1 2 1 2 3 4 8 11 11 14 19 18 17 16 15 15 15 16 16 16 13 15 17 15 16 15 14 14 12 12 12 12 12 12 14 13 12 12 11 10 10 10 11 11 11 12 13 14 16 17 17 16 16 16 16 16 16 16 16 16 16 17 16 16 16 16 16 18 18 20 24 26 27
4 2 1 1 2 2 2 4 5 3 4 4 5 5 7 6 5 6 5 4 3 4 4 3 2 1 2 4 4 5 8 11 14 15 16 18 18 16 14 13 15 16 16 14 12 16 17 16 16 14 14 13 12 11 10 11 11 13 14 13 12 11 11 10 10 9 10 10 11 11 12 13 15 16 17 16 16 16 15 15 15 16 16 16 16 17 16 17 17 18 17 18 19 21 24 26 26
3 2 0 1 3 3 1 4 4 4 5 5 5 5 5 4 3 5 5 5 4 4 5 4 3 0 1 6 3 5 9 11 15 14 13 18 18 15 13 12 14 16 16 13 12 16 17 16 16 14 14 13 12 11 10 10 10 12 14 13 12 11 10 10 9 9 9 9 10 11 12 13 13 15 17 17 16 16 15 15 15 15 16 16 16 17 17 17 17 17 17 17 19 21 23 25 25
1 2 1 1 4 2 1 4 4 4 5 4 5 5 4 4 3 2 3 5 4 4 5 3 2 2 2 5 2 6 14 14 15 16 14 16 16 14 13 11 13 15 14 13 12 15 16 15 15 14 14 14 12 11 10 9 10 12 14 14 11 11 10 10 10 9 9 8 9 11 12 13 13 14 15 16 16 15 15 14 15 15 15 15 16 17 16 16 16 17 16 17 20 20 21 22 22
1 3 2 2 4 2 3 3 5 5 5 4 4 5 3 4 3 2 2 3 4 5 5 4 1 1 2 4 2 9 16 14 16 17 16 15 15 15 12 11 13 14 14 13 13 14 16 16 15 14 14 14 13 11 10 9 10 12 14 14 11 11 10 10 10 9 9 8 8 10 12 12 13 14 14 16 16 15 15 15 15 15 16 16 16 17 16 15 16 16 16 17 19 19 18 18 19
1 3 1 3 3 3 3 2 3 4 4 4 5 5 4 4 3 3 3 2 4 4 4 4 1 1 1 4 4 8 12 14 17 17 17 15 14 15 13 11 13 13 13 13 13 13 15 17 15 15 14 14 13 12 11 10 10 12 13 13 12 11 10 11 10 9 9 8 8 10 11 12 13 14 14 15 15 15 15 16 16 16 16 16 16 16 16 16 16 16 16 16 18 18 17 17 19
1 2 1 2 1 2 2 1 1 1 2 4 6 6 4 3 2 1 2 3 3 1 1 2 2 2 1 4 4 4 9 16 18 17 17 15 14 16 13 12 13 12 13 13 14 13 14 17 15 15 15 14 14 13 12 11 10 11 12 13 12 11 11 11 10 10 9 9 8 9 11 12 13 13 14 15 15 15 15 16 15 15 15 16 16 16 16 16 16 15 16 16 16 18 18 18 20
1 2 2 2 2 0 1 1 1 2 2 4 6 7 5 2 2 3 2 2 2 1 1 3 3 1 1 2 3 6 13 18 19 18 17 14 15 15 11 12 13 12 12 13 14 13 14 16 15 15 16 15 14 14 13 12 12 11 12 13 12 11 11 11 10 10 9 9 8 9 10 11 12 13 13 14 14 15 15 15 14 14 14 15 15 15 15 16 16 16 16 16 16 17 18 18 21
1 2 1 2 2 0 1 1 2 2 2 4 5 6 6 3 3 2 2 2 2 1 1 2 1 1 3 3 5 14 20 19 19 19 17 15 15 13 11 11 12 12 12 13 14 13 14 16 15 15 16 16 15 14 14 13 13 12 12 12 12 12 11 11 10 10 9 8 8 8 9 10 11 12 13 13 13 13 13 13 13 13 14 14 15 15 15 15 16 16 16 15 16 17 17 18 21
0 1 0 2 3 1 2 2 3 3 4 4 6 6 6 4 2 1 1 0 1 2 1 3 3 3 5 7 11 19 21 19 19 19 17 16 15 14 13 12 11 12 12 13 13 13 14 16 16 16 16 17 16 15 15 14 15 14 13 13 13 12 12 11 10 9 9 8 8 8 9 10 11 11 12 12 12 12 12 13 14 14 14 14 14 15 15 15 17 17 16 15 16 16 17 17 19
0 1 1 4 3 1 1 3 3 4 7 5 6 6 5 6 4 2 2 1 1 3 3 4 6 7 10 12 16 17 18 19 19 19 17 16 15 14 14 14 13 13 14 13 13 14 14 14 15 15 16 17 16 16 16 15 16 15 14 14 13 13 12 11 11 10 9 8 8 8 8 9 9 10 11 11 11 11 12 12 14 14 15 15 15 15 16 16 18 18 17 17 17 16 16 16 17
1 2 2 4 1 2 4 6 6 4 5 7 6 6 5 5 7 4 2 4 5 4 4 5 5 7 9 12 16 16 16 18 18 18 18 17 16 16 16 16 16 15 16 15 15 15 14 14 15 14 15 17 16 16 16 15 16 15 15 15 15 14 13 12 11 10 10 9 9 8 8 8 7 8 10 10 10 11 12 12 13 14 15 15 16 16 17 17 18 18 18 18 18 17 17 17 17
1 1 2 2 2 4 6 8 7 5 3 6 7 4 2 4 6 4 3 5 6 7 5 6 6 7 9 10 15 17 16 16 17 17 17 18 17 17 17 18 19 18 18 17 16 16 15 14 16 15 14 16 16 15 16 15 15 16 16 16 16 16 15 13 12 12 11 10 11 10 10 12 9 7 8 9 10 11 12 13 14 15 16 16 17 18 18 18 18 18 18 17 17 17 17 17 17
0 0 1 3 4 4 6 7 6 5 4 3 7 4 2 3 4 3 4 3 4 6 6 8 10 11 12 10 13 17 16 16 17 17 17 18 18 18 18 18 20 19 18 18 18 19 18 15 16 16 15 16 16 15 15 15 16 17 17 16 17 16 16 15 13 13 13 11 13 13 11 14 11 7 8 9 10 11 13 14 14 15 16 17 17 18 19 19 18 17 16 16 16 16 17 17 17
0 1 3 4 4 4 4 5 5 4 3 3 7 4 1 4 3 3 4 4 3 2 0 2 5 9 14 13 14 15 15 15 16 17 18 19 19 19 19 18 19 19 18 21 22 22 22 19 16 16 16 16 16 15 14 14 16 17 17 17 18 17 17 17 16 15 14 13 14 14 12 13 13 10 10 11 12 12 14 15 16 17 17 18 18 19 19 18 15 14 14 15 15 16 17 17 17
1 1 5 5 5 3 3 3 3 5 2 3 3 0 2 3 2 5 6 7 3 4 5 6 6 10 18 16 14 13 12 14 16 20 20 20 21 21 20 20 20 21 21 23 24 24 24 23 19 18 18 16 16 16 14 14 15 16 17 17 18 18 18 18 18 18 16 15 16 16 15 14 14 13 12 12 13 15 16 17 17 18 18 19 19 19 18 14 12 12 13 14 14 15 16 16 16
2 0 3 3 4 4 3 3 1 3 4 3 2 2 1 3 2 1 4 8 4 5 8 7 8 13 17 14 11 11 12 14 17 21 22 21 23 22 21 21 20 22 21 22 22 23 25 25 23 21 20 19 19 17 16 16 15 15 15 17 18 18 19 20 20 20 19 18 18 17 17 17 16 15 15 14 14 16 17 17 18 20 20 19 18 17 15 14 14 13 13 14 14 14 14 15 15
3 1 4 2 3 5 4 3 2 1 2 2 2 2 3 2 1 2 4 7 6 4 7 7 8 9 11 10 9 10 10 14 16 18 20 20 20 21 21 20 19 21 23 22 22 23 25 26 26 24 22 22 21 19 18 18 18 17 15 15 17 18 19 20 21 21 21 20 19 19 19 19 18 18 18 18 16 16 16 15 18 21 20 18 17 17 16 17 16 15 15 15 14 14 14 14 14
2 3 5 3 4 4 2 3 3 1 0 2 1 3 4 2 3 3 7 8 7 6 7 7 7 7 7 8 9 9 9 12 15 17 19 20 19 20 22 22 21 22 24 24 23 24 24 25 26 26 25 24 23 21 20 20 20 20 18 14 14 17 19 19 20 21 22 22 22 21 20 21 21 20 20 22 19 17 19 18 19 20 19 18 19 19 19 19 18 18 18 17 16 15 14 13 13
1 5 5 5 5 3 1 2 4 1 1 2 1 3 2 3 1 4 3 3 5 8 7 7 7 6 7 7 8 10 10 13 17 18 17 18 18 20 22 24 23 22 23 24 25 26 24 24 26 27 27 25 23 23 23 22 20 20 21 20 16 14 17 19 19 20 21 23 24 23 22 21 22 22 21 23 23 20 22 21 20 20 19 19 21 21 21 21 21 20 18 17 17 16 15 13 12
2 6 6 5 4 4 2 2 4 2 1 0 2 4 3 4 2 8 4 1 4 7 6 7 7 6 7 8 8 9 10 15 19 18 17 19 22 23 24 26 26 24 24 26 26 26 24 25 28 28 28 27 25 24 23 23 21 20 22 23 21 16 16 18 20 20 20 22 24 25 24 22 23 23 22 24 26 24 23 23 22 22 21 21 22 22 23 23 22 20 18 18 17 16 16 14 12
4 4 3 5 4 3 5 4 3 2 1 1 1 4 6 5 8 14 7 6 5 6 6 7 7 7 7 8 7 7 10 15 18 19 20 23 24 26 27 28 28 26 25 26 26 26 26 27 29 29 28 28 27 26 24 23 22 20 20 20 21 20 18 18 20 21 20 21 23 25 25 25 24 23 23 24 26 26 25 24 24 24 23 23 23 23 24 24 23 22 20 19 19 18 17 15 14
3 3 1 4 3 3 7 5 4 3 2 2 2 2 6 5 12 12 8 8 7 6 6 7 7 7 7 7 7 7 10 13 15 20 23 23 23 25 27 27 28 28 25 24 26 28 28 28 29 29 29 29 29 28 25 25 24 20 18 17 17 20 23 21 19 20 20 21 22 24 25 26 26 24 24 25 26 27 27 26 25 25 25 25 25 25 26 25 24 23 21 21 20 19 18 16 15
2 2 1 2 2 2 4 5 6 4 0 2 3 1 7 6 5 2 7 8 7 7 7 7 7 7 7 7 7 7 8 13 17 20 23 23 23 24 26 26 26 28 27 25 26 27 28 29 28 29 30 30 31 31 28 26 26 23 20 19 17 19 24 26 23 19 19 21 23 25 25 25 27 26 25 25 28 28 29 29 27 27 27 27 27 26 28 26 25 24 23 23 22 20 19 17 17
2 3 2 3 2 1 2 1 4 3 1 3 4 2 7 8 2 4 5 5 5 5 6 6 7 7 7 7 7 7 7 13 18 20 22 24 24 24 25 26 26 28 29 29 28 27 28 29 29 29 30 31 32 33 32 28 25 24 24 24 22 19 22 27 28 25 22 22 23 25 25 26 27 28 26 26 28 29 30 30 28 29 30 28 28 27 28 28 26 25 23 23 23 22 21 19 18
2 2 3 3 3 3 2 1 0 2 1 4 4 3 5 4 2 4 3 5 5 5 5 7 7 6 7 6 7 7 7 10 14 18 22 24 25 26 26 27 28 29 30 30 30 30 29 29 30 30 30 32 32 32 33 31 28 27 25 26 25 24 23 25 28 29 26 25 25 25 25 26 28 30 28 27 28 29 31 31 29 31 32 31 29 28 29 29 27 26 25 23 23 23 23 22 21
3 3 3 3 3 3 2 0 1 1 1 3 5 5 6 7 4 2 4 5 7 6 7 8 7 7 7 6 7 7 8 8 9 16 24 26 27 28 27 27 28 29 30 30 30 31 31 30 30 31 30 31 31 31 31 31 30 29 26 25 26 26 25 24 26 29 29 27 27 27 26 27 29 30 30 29 28 28 31 32 30 32 34 32 30 29 29 29 28 27 26 25 23 24 25 24 24
4 5 4 3 2 3 2 1 2 3 1 3 5 6 8 10 10 7 7 8 8 8 9 8 8 8 7 7 7 7 8 8 9 17 26 28 28 29 28 27 28 29 30 30 29 30 31 31 31 31 31 30 31 31 31 31 30 29 28 27 27 27 27 25 25 28 30 30 30 30 29 29 29 29 32 32 29 28 31 33 32 33 35 34 32 31 31 30 30 29 28 27 25 24 25 25 26
1 2 3 3 2 2 1 3 0 1 1 4 6 7 9 10 11 10 8 8 8 9 9 8 8 8 8 7 7 8 9 9 12 19 26 29 30 30 30 28 28 29 30 30 29 30 31 32 32 32 32 32 31 31 30 30 29 29 29 29 30 29 28 27 27 28 29 30 32 32 31 32 31 29 32 34 31 30 31 33 32 33 36 35 34 33 33 33 33 32 30 29 28 25 23 25 26
4 3 2 1 1 1 3 4 2 3 1 5 7 8 10 10 10 10 8 7 7 8 9 9 8 8 8 8 9 10 9 9 13 19 24 29 31 30 30 29 28 28 29 30 30 31 32 32 32 33 33 32 32 32 32 32 32 32 31 32 33 31 29 28 28 29 28 29 32 32 31 33 34 32 32 34 33 32 32 32 32 35 37 38 37 36 36 36 36 35 32 30 31 28 25 25 27
3 3 4 4 2 0 3 3 1 1 2 4 6 8 10 9 9 10 8 9 10 10 11 11 11 10 8 9 11 11 8 7 10 13 18 25 27 28 29 29 30 30 30 31 32 33 32 32 33 33 33 33 33 34 34 34 35 34 33 33 33 31 31 30 30 30 29 28 30 32 31 31 33 34 33 33 33 33 33 33 34 36 37 38 37 36 36 35 36 36 34 31 29 29 28 28 30
3 2 2 3 3 1 4 3 0 0 0 4 5 7 10 10 10 12 11 12 12 12 12 12 11 10 9 10 10 9 8 7 8 9 12 19 23 24 26 27 30 31 31 31 31 31 31 31 33 33 33 34 35 35 35 35 35 33 32 30 29 29 30 31 31 30 30 29 29 31 33 33 33 33 33 31 31 34 35 35 36 36 36 37 37 36 35 35 36 36 36 34 30 28 27 30 33
1 1 1 2 1 1 1 2 1 2 2 3 5 6 10 10 9 13 15 15 13 10 12 11 10 10 10 11 9 8 9 9 9 8 10 15 19 22 24 26 28 27 27 27 28 29 30 32 33 33 33 34 34 34 34 33 31 29 28 26 25 26 27 27 28 27 29 31 30 30 33 35 34 35 34 31 31 33 34 35 35 34 36 38 39 38 36 37 38 38 37 35 33 29 26 29 32
4 5 4 3 2 2 2 1 2 4 1 3 4 6 8 6 5 8 9 9 9 8 10 10 9 9 10 9 8 7 8 8 8 9 9 12 16 21 25 26 25 25 25 26 28 29 30 30 31 31 31 32 32 32 32 30 28 27 25 22 21 22 22 23 25 27 28 30 32 33 34 34 33 34 34 33 33 34 34 34 33 33 36 39 40 40 38 39 40 41 40 38 37 34 30 30 31
4 5 4 4 4 1 4 4 3 2 2 2 2 3 6 4 4 8 7 4 6 7 9 10 8 8 9 9 9 8 8 7 7 8 8 11 16 20 22 22 23 24 26 26 27 28 28 27 28 28 28 28 29 30 30 30 29 28 27 26 24 24 23 24 28 30 29 29 31 33 35 36 33 33 33 33 34 35 34 33 33 33 36 40 41 39 38 39 40 41 41 41 39 37 33 31 31
3 3 3 3 3 3 3 2 2 0 3 3 2 2 4 8 8 8 6 6 7 6 8 9 8 8 9 9 9 8 8 8 7 7 6 9 14 16 16 20 22 23 24 23 24 25 26 25 26 27 27 27 27 28 29 30 29 28 29 30 29 28 27 27 28 27 27 28 29 30 33 36 35 33 32 32 33 35 34 34 34 34 36 39 39 38 39 39 41 42 43 44 41 38 36 33 34
2 3 5 4 2 3 2 1 2 2 2 2 2 4 2 8 9 4 2 6 8 7 9 8 8 10 10 8 8 8 7 7 6 7 7 7 11 15 16 19 21 21 21 20 22 24 24 23 23 25 26 25 25 26 27 29 29 28 28 29 29 29 27 25 24 23 25 26 28 30 30 32 33 33 32 31 31 32 34 35 35 35 36 38 38 38 39 39 40 42 43 44 42 39 39 36 37
2 3 2 2 3 3 2 1 2 1 3 3 3 3 2 5 10 6 1 5 9 9 10 10 10 11 9 7 6 6 5 6 6 6 6 6 9 13 15 17 18 19 18 19 21 22 23 22 21 22 24 24 23 24 25 27 29 28 28 28 27 27 26 23 20 20 22 25 28 31 30 30 31 31 32 32 31 31 32 34 35 37 37 37 37 36 38 39 40 42 43 43 41 39 39 36 36
3 4 2 3 4 3 2 1 0 2 1 4 6 5 3 4 8 8 3 4 7 8 8 7 5 3 4 5 6 6 6 5 5 6 6 6 8 10 11 13 15 16 17 18 19 20 21 22 21 21 23 23 23 24 25 26 28 28 28 28 27 26 25 23 21 19 21 25 28 29 30 30 30 31 32 32 32 32 32 32 35 38 37 36 35 35 37 38 39 41 43 44 41 38 37 35 35
3 4 3 3 2 3 2 1 3 1 3 4 7 10 6 4 5 7 4 4 5 5 4 0 3 5 5 6 6 6 5 4 5 5 6 7 9 10 10 12 14 14 15 17 18 19 20 21 22 21 22 23 23 24 25 26 27 28 28 28 28 28 26 24 24 23 23 25 28 29 30 31 31 31 32 32 33 33 32 32 33 35 35 34 34 34 36 38 38 40 41 43 42 39 36 33 32
2 2 3 2 0 3 2 1 3 1 4 2 2 4 5 6 6 5 5 3 2 2 1 3 5 4 3 4 4 6 6 6 6 6 6 7 7 9 11 13 14 15 16 17 18 18 19 20 21 22 22 23 24 24 25 26 28 29 29 29 28 28 26 25 25 25 25 26 28 28 29 30 31 31 31 32 34 35 34 32 31 32 32 32 32 33 35 36 37 38 40 42 42 41 38 34 30
0 2 4 3 1 1 1 1 1 3 5 2 4 3 2 7 6 5 7 8 6 4 4 3 6 6 5 5 6 5 5 6 6 6 6 6 6 8 12 15 16 17 18 18 19 19 19 21 22 23 24 25 25 24 25 27 28 29 29 29 29 27 26 26 25 26 26 27 27 28 28 30 31 32 33 33 35 36 36 34 32 30 29 30 31 32 34 36 37 37 39 40 41 41 40 37 34
4 5 5 4 3 2 4 4 2 3 3 4 4 2 3 5 3 7 10 12 11 5 2 2 3 4 4 5 6 5 5 5 6 6 7 6 7 9 13 16 18 19 19 19 20 20 21 22 23 24 25 25 25 25 25 26 28 29 29 30 30 28 27 27 26 26 26 27 27 28 28 30 31 33 34 34 35 35 37 37 34 31 29 30 32 33 35 36 36 36 37 38 40 41 41 40 38
6 5 5 5 5 4 4 3 3 3 1 3 4 1 3 2 2 5 4 6 7 5 2 1 2 3 2 2 3 5 6 6 6 6 6 7 9 12 15 16 18 19 20 20 21 22 22 23 24 25 25 25 26 26 26 27 28 28 28 29 30 30 29 28 28 27 26 27 27 27 28 30 31 32 33 33 33 35 36 35 33 31 32 32 33 33 34 35 35 35 36 37 39 40 39 38 37
5 3 3 5 4 2 1 2 3 2 1 2 2 3 5 3 6 8 6 8 8 7 7 5 5 3 2 1 5 6 6 7 6 6 6 7 10 14 16 16 18 19 20 22 22 23 24 23 24 24 25 26 27 28 27 27 28 27 27 28 29 29 29 28 28 28 28 28 27 27 27 29 30 31 31 32 33 34 35 34 33 34 34 34 34 33 34 35 35 35 36 37 38 38 37 36 34
3 3 4 4 1 2 2 2 1 3 2 4 3 5 6 3 8 10 10 13 11 8 8 6 6 5 2 5 7 6 6 7 7 7 7 8 10 14 15 16 18 20 22 23 24 24 24 24 24 24 25 25 26 28 28 27 27 27 27 28 28 29 29 29 29 28 29 28 28 28 28 28 30 30 31 31 32 34 35 36 37 37 35 34 34 34 34 35 36 36 36 37 38 38 37 36 35
4 4 4 1 3 2 2 1 2 1 5 4 3 8 8 3 6 5 3 8 8 7 8 7 8 7 6 8 7 5 6 7 7 8 8 8 9 12 15 17 19 21 22 23 23 23 23 23 23 24 25 26 27 27 28 28 27 27 28 28 28 29 29 29 29 29 28 28 29 29 29 29 30 30 30 30 31 32 34 35 35 34 33 33 34 34 34 35 36 36 36 37 38 38 37 37 35
4 2 1 2 1 1 2 2 2 3 4 4 5 8 7 6 7 4 4 6 6 7 8 8 7 6 6 7 7 5 4 6 7 7 7 6 7 11 15 17 18 20 21 21 21 22 22 22 22 22 23 25 25 26 28 29 28 28 29 29 29 28 28 29 29 28 27 28 29 30 30 31 30 29 29 30 30 31 31 32 32 32 33 34 34 34 33 34 35 35 35 35 36 36 36 36 34
4 3 2 2 2 3 3 3 2 3 4 5 7 6 6 8 6 3 7 8 7 7 6 5 3 0 1 2 4 6 5 5 5 6 6 6 8 12 15 17 18 19 19 20 20 22 23 22 22 22 22 23 24 26 28 29 29 29 29 29 28 29 29 30 29 27 27 28 29 30 31 32 31 30 30 31 31 31 31 31 31 32 32 33 33 33 33 33 33 33 33 34 34 35 35 35 34
1 1 2 2 1 2 0 2 2 3 3 4 5 6 8 7 2 4 6 2 2 4 5 5 5 5 4 3 4 6 6 6 6 5 6 6 8 11 13 14 16 17 18 18 20 21 22 21 22 22 23 24 26 27 28 29 30 30 29 29 29 29 30 31 30 29 28 28 28 29 30 30 31 31 31 31 32 31 31 31 30 30 31 32 33 33 33 32 32 32 31 32 33 33 33 34 33
8 6 7 7 5 3 1 4 3 3 2 4 4 6 11 6 4 3 3 7 5 6 7 4 6 6 8 7 6 7 5 6 6 4 4 4 6 9 10 12 14 16 17 18 20 21 21 22 22 23 24 25 27 27 28 29 29 30 30 30 29 29 29 30 30 31 30 29 29 28 29 29 30 31 32 31 31 31 31 30 30 30 30 31 32 32 33 32 32 32 32 32 32 32 32 32 32
Wind_Direction
286 295 317 314 313 311 287 237 279 252 211 108 98 101 74 81 118 123 106 121 99 60 42 60 44 30 34 1 56 84 49 30 44 20 108 134 142 144 137 133 133 134 140 145 145 142 142 141 133 131 126 126 123 119 116 109 110 109 106 104 103 104 97 90 85 80 76 74 77 80 83 82 84 86 89 91 94 94 92 92 92 93 90 87 91 89 86 84 82 81 81 81 80 78 80 84 84
288 293 304 297 280 278 269 179 249 259 184 97 72 84 105 124 122 92 84 79 66 73 59 48 52 47 357 329 29 87 57 47 72 82 106 131 139 138 135 135 135 134 138 142 144 143 144 145 138 133 126 127 125 121 117 114 118 116 113 112 111 109 100 94 88 85 80 77 77 79 82 83 85 87 90 92 94 94 94 94 93 98 98 92 90 88 86 84 81 80 82 83 83 82 83 85 87
285 279 297 279 252 235 275 198 236 283 116 97 71 101 130 111 81 72 69 73 74 86 81 66 74 48 310 325 22 60 78 74 91 95 114 139 140 138 141 138 137 135 136 139 144 147 150 152 147 138 129 128 132 129 126 127 129 125 121 120 120 114 104 98 92 88 82 76 76 79 82 85 87 88 91 93 94 94 95 97 97 99 97 91 88 86 85 83 83 81 83 84 86 86 85 88 93
280 279 335 280 250 214 264 231 246 326 38 88 85 118 121 93 85 80 76 77 80 88 89 113 104 14 339 18 23 67 97 90 105 111 133 159 147 141 144 140 139 137 137 139 144 151 155 156 152 143 134 133 140 141 138 139 139 134 125 122 125 119 108 101 95 91 82 73 73 76 82 88 90 90 92 94 95 96 97 98 99 96 92 89 87 86 86 88 88 86 85 86 87 86 87 93 97
304 321 275 271 272 241 269 269 286 34 28 25 97 118 101 96 98 95 90 80 65 57 35 33 80 17 63 34 358 76 96 98 118 118 112 137 141 145 146 142 141 140 139 140 148 156 156 157 154 147 139 136 145 149 148 148 143 135 125 124 127 120 111 104 96 92 84 74 72 73 81 90 94 94 94 94 95 96 98 99 98 97 95 94 91 90 91 93 93 91 89 87 88 88 91 98 100
324 316 236 236 248 9 301 270 45 83 9 5 96 101 85 97 105 105 100 89 68 62 19 10 72 355 97 61 44 59 46 119 127 118 112 121 137 146 147 147 144 142 140 142 155 159 156 158 155 149 143 141 147 152 153 152 146 134 128 128 129 123 114 107 97 92 88 78 74 74 80 92 97 97 95 95 97 97 99 100 98 96 95 95 96 95 92 92 92 91 90 88 89 90 96 102 100
314 309 212 232 260 151 256 274 63 81 354 11 70 89 89 99 109 117 118 107 88 90 28 10 35 333 107 111 76 57 35 93 110 112 128 129 136 145 146 149 147 147 145 148 158 158 158 159 155 151 146 146 146 150 154 153 145 136 133 131 131 127 116 109 101 95 92 84 80 79 83 94 99 98 97 97 98 100 101 101 100 99 98 98 98 96 94 93 92 91 90 90 91 91 99 104 101
284 283 134 293 272 224 253 25 58 66 49 38 46 64 94 111 123 128 130 125 126 125 146 52 56 2 136 139 83 92 63 86 102 110 129 132 137 146 149 150 149 150 148 153 160 156 158 158 155 153 149 150 147 147 151 152 144 138 139 135 131 129 121 116 107 99 94 89 85 83 86 94 101 100 99 98 99 101 102 101 101 103 101 100 97 95 96 95 94 93 92 92 91 93 101 104 101
236 238 59 324 257 241 247 87 80 77 102 92 71 67 91 120 134 128 124 115 131 132 137 150 116 49 131 95 83 129 99 100 113 117 135 142 142 147 153 154 152 151 148 152 157 155 158 160 156 153 153 153 150 149 149 152 147 141 142 137 132 132 128 122 109 101 96 92 88 86 88 94 101 104 103 101 100 102 103 103 103 105 103 100 97 95 95 95 94 93 93 93 94 99 104 105 103
212 191 21 310 266 245 234 90 92 82 91 87 97 101 97 124 135 131 134 115 129 126 99 97 105 224 158 108 104 136 131 130 125 125 144 149 144 147 158 156 153 151 150 149 152 159 162 162 158 154 157 156 154 153 149 154 151 146 146 140 137 138 133 125 112 104 98 93 92 89 90 95 102 107 109 106 104 104 106 107 107 106 103 99 98 96 97 98 97 97 95 95 100 104 107 107 105
232 194 149 318 274 255 44 85 104 98 100 91 100 109 108 130 122 111 112 102 117 114 105 119 121 230 193 108 86 124 136 142 136 136 145 152 148 150 160 157 155 156 157 152 153 165 166 164 162 159 159 159 161 157 153 155 155 153 149 143 142 143 136 130 120 111 104 96 94 94 95 98 103 109 112 112 110 109 110 110 109 107 104 103 102 101 103 105 103 99 96 98 105 109 110 109 106
244 223 148 267 282 33 35 54 97 105 120 135 122 119 131 124 123 135 114 102 127 133 139 168 156 280 175 104 110 138 140 147 146 144 148 155 152 154 162 163 161 161 164 159 159 168 170 170 167 166 164 163 165 162 159 157 160 159 152 148 148 146 142 136 129 120 114 108 102 99 101 103 106 110 112 116 116 115 116 115 113 112 110 109 108 107 108 108 104 99 97 101 108 113 113 110 107
248 255 170 236 285 40 17 21 97 131 147 163 138 129 143 135 162 168 148 133 132 152 145 149 120 5 110 89 118 146 147 153 149 147 153 157 160 163 163 169 169 163 169 164 160 169 174 175 173 173 171 169 168 168 167 161 166 164 155 153 153 151 149 145 136 130 127 123 114 107 109 109 110 112 113 117 120 121 121 121 118 117 116 115 114 114 113 111 107 102 102 108 111 113 113 111 110
278 297 329 256 293 32 12 36 127 156 118 124 120 133 150 148 185 136 136 148 104 133 120 73 73 53 82 109 135 164 153 149 147 149 152 154 165 168 161 170 173 166 177 169 160 170 177 178 179 180 177 176 174 175 174 167 169 169 161 156 158 157 154 152 145 142 141 135 124 114 115 115 117 116 118 122 124 125 124 124 123 122 122 121 120 120 122 119 112 106 110 117 115 112 112 114 113
322 335 342 314 309 16 67 104 60 32 72 108 118 143 145 90 48 43 45 102 75 103 116 40 39 63 57 112 164 161 148 145 147 149 149 153 163 167 161 167 170 168 180 175 167 174 178 178 182 187 185 182 181 182 182 176 173 174 168 160 162 163 161 160 155 155 150 140 130 119 117 118 121 121 122 124 126 127 127 129 127 126 124 123 125 123 124 121 113 109 117 122 117 113 113 116 116
359 354 354 309 290 235 153 167 78 56 99 127 142 146 140 95 42 68 26 53 106 181 110 66 53 54 54 56 104 129 141 146 148 148 147 154 160 170 167 163 170 171 175 177 180 179 179 182 183 190 189 185 188 188 187 186 182 179 174 168 168 170 170 169 165 164 156 144 137 127 123 121 123 124 125 126 128 130 130 130 129 129 128 126 125 122 121 120 113 112 119 121 116 115 115 118 119
151 47 30 259 245 195 172 161 118 139 123 132 159 154 147 134 84 99 148 309 125 134 138 101 78 65 85 98 110 122 138 145 147 147 146 152 161 175 170 166 176 178 179 181 186 185 184 187 186 190 189 187 192 192 192 193 190 186 179 175 175 177 178 176 173 170 160 152 146 139 131 127 129 130 130 130 131 132 133 133 132 133 132 130 127 122 121 118 114 115 120 119 116 117 118 121 121
245 131 209 242 233 246 143 97 78 133 134 147 165 171 169 145 152 129 116 226 187 159 163 117 80 78 100 119 124 127 139 144 149 150 148 155 169 178 172 176 183 184 188 185 187 187 186 188 189 192 191 190 194 192 191 194 194 192 186 182 182 184 184 179 179 178 168 160 155 147 133 131 135 134 134 136 137 138 139 138 136 136 134 133 129 125 123 120 119 122 124 122 120 120 120 121 122
246 154 216 246 203 23 21 61 55 54 120 149 159 189 197 148 151 136 152 196 185 193 197 159 129 105 113 129 136 139 146 151 158 159 157 164 177 181 176 183 189 190 193 189 187 186 186 189 188 191 194 193 194 193 190 195 196 193 191 188 187 188 189 188 185 184 177 171 162 144 129 140 148 140 141 142 144 145 143 142 140 138 136 134 131 128 126 124 124 126 126 125 125 124 123 119 118
251 113 217 276 45 59 34 59 71 31 60 141 145 174 202 134 133 136 203 210 185 195 203 178 175 159 150 152 147 149 157 162 170 169 167 173 180 184 182 188 192 195 196 193 193 191 190 194 192 187 193 196 192 194 191 193 196 193 195 194 193 193 191 193 193 189 184 179 165 146 145 163 171 155 149 149 150 151 148 147 145 141 138 136 133 130 127 126 127 128 128 127 129 129 127 122 118
78 92 163 329 357 54 44 53 62 26 9 95 120 124 195 130 112 148 200 232 207 206 210 190 194 182 161 161 158 156 163 169 178 181 177 179 182 187 189 193 194 198 199 195 198 199 194 197 201 188 187 198 193 193 192 190 193 193 196 197 197 196 194 194 193 192 189 185 170 160 166 177 182 167 154 158 158 156 153 150 147 142 140 137 134 131 129 130 130 129 130 132 134 135 133 130 126
202 145 92 30 3 51 53 53 40 356 337 81 111 127 177 108 106 184 211 241 212 189 231 167 191 173 156 158 159 159 167 172 181 188 187 186 187 189 192 195 196 198 200 199 201 205 198 193 203 195 189 202 197 192 194 193 195 193 196 199 198 197 198 198 196 194 192 189 180 174 177 182 186 176 164 168 164 159 156 153 149 146 143 140 137 133 130 129 127 130 138 141 143 143 140 138 135
246 118 76 38 19 65 55 59 23 329 352 90 113 140 70 101 192 204 212 235 199 106 78 54 51 122 143 151 156 162 173 176 184 191 193 191 191 192 191 194 194 194 197 201 203 206 204 193 196 199 193 200 200 195 196 199 199 195 199 202 200 199 199 201 201 198 196 193 188 184 182 185 188 178 171 173 169 165 162 157 155 151 147 143 140 136 131 132 137 146 150 148 147 146 144 143 141
243 139 87 42 33 75 59 69 86 345 24 49 21 341 36 187 236 206 213 233 222 113 99 84 75 112 135 146 160 172 178 183 190 195 196 195 195 195 193 194 194 193 194 199 201 203 202 194 194 200 196 200 202 197 200 205 202 195 204 207 200 201 202 204 204 201 198 195 194 192 187 188 190 180 173 176 176 170 165 163 163 158 152 149 145 141 142 151 155 155 152 149 148 148 146 145 145
238 150 108 95 63 89 88 100 109 46 47 35 29 287 250 200 69 345 245 240 236 142 113 109 104 118 140 151 168 178 181 187 193 196 199 201 201 198 198 199 195 194 195 197 199 200 201 197 195 197 197 201 201 199 203 209 205 194 200 210 206 205 206 208 209 205 202 201 199 196 193 191 190 185 177 179 183 176 169 175 176 165 157 160 160 158 164 165 159 155 153 152 152 151 150 149 148
241 115 116 124 105 98 116 128 114 110 123 67 62 238 236 89 59 265 245 239 224 160 133 132 127 141 163 164 172 180 183 189 192 194 199 202 202 201 200 202 199 196 198 198 197 198 201 201 197 196 198 201 203 203 205 211 213 204 200 205 211 213 211 211 212 211 209 208 205 200 199 194 192 192 184 181 184 180 177 187 190 175 167 177 176 173 176 172 161 159 158 157 156 156 155 153 152
71 104 103 107 121 119 230 155 120 132 79 97 269 279 248 98 81 254 257 247 187 148 150 155 149 171 186 181 181 184 187 193 193 192 193 195 201 204 202 202 203 201 198 198 199 197 198 201 199 199 200 200 203 206 206 211 218 217 212 208 209 217 217 213 215 216 214 212 210 205 202 198 196 197 191 186 184 184 184 191 194 185 181 187 186 183 180 172 165 163 162 161 160 159 157 155 157
120 115 99 107 144 135 193 177 143 171 80 183 288 306 277 111 168 237 214 155 149 151 174 177 178 196 200 199 193 189 193 195 193 188 187 192 199 203 203 203 202 201 200 198 199 197 196 200 200 200 200 197 201 205 204 207 213 215 216 214 212 213 216 216 217 218 216 215 215 211 206 202 201 200 198 192 188 188 189 192 193 188 189 189 190 190 181 172 169 166 165 164 161 159 156 154 157
126 153 131 145 172 163 194 175 147 183 135 253 357 315 264 176 225 238 189 152 163 170 192 191 196 206 210 211 198 193 198 195 190 190 196 198 200 202 203 205 203 201 203 202 201 199 198 200 198 199 199 198 202 204 202 203 207 212 215 217 216 211 210 213 218 220 219 219 218 217 213 209 207 204 203 200 195 194 194 195 194 191 193 191 193 194 183 176 172 167 167 167 162 159 155 153 155
140 213 207 149 182 204 194 160 141 161 130 191 98 323 264 218 236 235 162 151 161 174 205 203 201 204 206 208 199 196 196 194 194 198 202 203 202 203 205 207 206 203 202 201 201 200 201 202 200 200 199 199 203 202 202 203 204 208 212 216 218 215 211 209 214 220 221 222 220 219 216 213 212 209 207 205 201 200 198 200 198 195 197 194 195 195 187 181 175 171 170 167 163 161 156 154 155
158 169 300 205 207 192 169 144 158 172 202 193 130 241 268 283 276 190 139 155 161 187 217 215 214 210 201 194 195 200 198 202 206 205 204 205 205 206 207 207 206 206 203 201 200 200 203 204 203 203 202 201 203 201 200 204 206 209 213 215 219 219 216 212 211 214 219 222 220 220 219 216 214 212 212 209 204 203 201 201 201 199 199 197 196 196 192 186 178 174 172 167 162 160 156 154 156
164 131 264 243 226 180 140 131 164 162 287 192 149 226 263 275 284 108 123 138 157 218 237 233 229 218 207 192 188 198 206 209 211 210 207 206 206 206 208 206 203 205 204 204 203 200 201 204 204 204 204 203 205 205 205 205 207 213 216 216 219 222 220 217 214 211 214 220 221 222 222 219 214 211 213 213 208 205 201 203 205 202 201 199 197 195 195 191 181 175 174 173 167 160 157 156 157
191 169 228 214 198 191 177 314 346 120 125 187 196 252 276 276 159 129 159 157 165 217 246 249 241 226 216 200 192 198 207 210 210 210 209 208 207 207 208 207 205 205 205 206 204 201 201 204 207 206 206 207 207 209 210 209 209 215 218 216 217 222 223 222 219 214 212 216 220 223 222 219 214 210 212 216 215 210 204 205 207 205 203 203 200 196 197 195 186 177 174 177 174 166 161 159 158
199 189 251 234 179 186 183 316 326 146 192 224 216 231 258 270 256 212 219 195 180 200 224 236 236 232 229 214 205 202 202 210 207 203 205 208 209 210 210 208 207 206 207 208 207 206 204 205 209 209 208 209 209 209 210 211 212 215 215 213 213 217 220 221 222 219 217 218 220 223 224 220 215 213 214 217 218 216 211 210 209 207 205 206 204 199 199 197 189 184 179 177 180 175 168 164 163
183 182 222 229 182 240 247 124 178 183 196 252 232 235 250 261 265 255 232 208 196 209 221 226 231 235 240 230 218 212 206 213 212 201 202 206 208 210 210 209 206 205 206 208 209 209 206 206 209 210 209 209 209 209 211 211 211 213 212 210 211 213 215 216 220 221 222 224 224 224 225 224 220 216 216 217 218 216 213 212 211 208 206 206 205 200 199 198 191 188 185 180 179 178 176 171 166
49 174 199 203 194 246 164 104 12 238 173 235 240 249 254 256 264 264 251 223 209 220 227 229 233 233 238 236 229 223 217 219 214 204 202 203 206 207 206 206 205 204 206 206 207 209 206 206 208 210 210 210 208 207 209 210 208 211 212 212 214 213 214 216 220 222 222 224 225 224 223 224 222 217 216 218 220 218 213 211 212 210 207 207 205 201 200 201 197 193 190 184 177 174 174 172 167
18 9 360 317 7 22 85 93 334 336 327 245 241 253 261 260 262 263 263 260 248 240 240 239 234 230 230 231 233 229 224 226 217 208 203 200 202 203 201 202 201 201 204 205 205 208 208 206 207 209 210 208 207 205 206 207 206 208 210 212 214 213 214 217 219 221 224 224 223 223 224 224 224 221 220 220 222 221 215 213 213 210 206 205 206 206 206 205 202 197 191 185 180 173 170 170 169
11 2 357 347 331 93 76 84 240 357 14 268 273 277 270 268 272 272 266 262 256 244 244 244 239 237 232 230 234 233 230 228 214 206 198 192 193 195 194 196 197 197 202 205 206 208 209 206 206 210 209 206 207 206 206 208 209 210 210 212 215 215 217 218 218 219 224 226 222 220 221 222 222 222 221 219 220 220 218 216 214 210 206 204 206 206 206 203 199 196 190 183 180 177 174 173 172
21 18 358 325 286 139 72 64 316 81 189 273 312 306 280 273 269 268 261 251 246 235 233 237 237 239 238 235 235 228 225 221 207 197 184 181 183 185 188 193 197 200 203 204 206 207 207 206 207 210 209 207 207 208 208 210 212 213 214 216 216 216 218 219 220 220 223 226 223 220 220 221 219 218 217 216 217 217 217 215 211 211 210 208 206 204 202 202 199 197 193 186 180 176 176 177 180
4 195 224 271 250 85 34 348 306 228 220 296 327 308 281 272 257 255 251 244 244 237 234 234 227 229 234 238 236 216 213 215 203 194 180 173 175 179 187 194 198 202 203 204 205 206 207 207 207 208 209 209 208 208 210 211 212 213 215 217 217 217 220 222 223 225 225 224 223 220 220 220 219 219 220 220 216 213 214 214 212 212 213 212 209 205 203 204 203 200 196 190 183 176 173 179 185
227 211 212 229 228 120 121 57 305 244 247 357 328 308 282 262 240 259 262 243 238 233 233 237 228 229 241 248 249 230 218 214 200 195 184 171 175 185 193 198 199 201 204 206 207 207 208 209 208 209 210 210 209 208 209 210 209 208 207 207 210 214 219 220 219 219 220 222 223 222 218 217 217 219 222 222 218 214 214 217 218 217 216 213 209 206 206 206 206 204 200 196 192 187 180 181 185
237 215 211 237 277 5 101 70 11 326 333 313 349 341 291 291 294 288 300 278 241 225 220 229 231 236 245 249 248 244 238 227 208 197 181 171 183 192 195 197 199 203 208 210 210 209 209 210 210 209 210 210 210 209 209 209 208 206 203 200 200 203 206 210 213 213 214 217 221 222 222 220 218 217 220 221 219 218 218 219 222 221 217 212 208 208 209 208 207 207 204 200 199 197 189 183 185
264 264 335 333 325 33 85 60 37 358 281 247 128 82 280 303 297 267 273 274 260 246 230 226 227 231 233 233 228 230 234 228 219 212 190 173 181 186 190 196 201 207 211 211 211 211 210 211 211 210 210 210 209 208 209 210 209 208 208 208 208 207 208 212 216 216 216 218 221 222 223 222 220 218 218 220 220 221 223 223 224 223 218 214 211 211 211 210 211 211 209 206 203 202 196 189 187
251 282 334 347 74 101 129 150 196 212 322 295 167 144 231 293 284 241 196 280 277 266 252 240 232 233 231 223 209 205 209 198 190 203 199 174 171 176 184 196 204 209 211 209 210 210 209 210 210 209 210 210 209 208 209 210 210 210 211 213 215 216 217 219 222 225 224 224 225 225 225 223 220 219 218 219 221 222 222 221 221 219 216 214 213 213 214 214 214 212 210 208 206 203 200 198 193
235 255 314 7 85 107 134 144 224 161 28 312 222 159 186 265 276 280 221 255 268 264 257 249 241 238 228 204 176 158 149 140 145 165 178 168 164 171 181 194 204 208 209 209 210 210 209 208 209 208 208 209 209 209 211 212 212 212 213 214 216 219 221 222 227 234 233 228 227 226 227 225 221 219 219 219 219 219 219 219 219 217 215 213 214 216 216 215 214 212 208 207 206 204 203 203 199
202 205 105 61 82 73 70 121 36 63 14 252 203 175 221 256 264 278 272 234 251 257 255 252 246 227 173 147 130 121 112 112 124 132 137 146 157 163 170 181 193 201 206 208 208 209 207 206 206 206 207 208 210 211 213 214 212 214 216 216 217 219 222 224 226 234 233 226 224 224 225 225 223 220 219 219 218 217 218 220 220 217 214 215 216 217 216 216 215 213 211 208 206 206 206 205 204
151 163 116 97 121 66 32 89 84 47 271 246 197 186 207 267 251 244 247 216 216 242 264 245 74 67 85 106 121 136 139 139 142 134 123 128 147 158 160 167 178 189 196 200 203 204 204 203 203 204 206 208 210 212 214 215 214 215 217 218 220 221 222 223 223 226 226 221 219 222 224 226 226 223 220 219 219 218 216 217 218 217 216 217 218 218 217 218 218 217 215 213 211 211 211 209 208
96 152 130 119 40 48 17 357 75 231 252 268 255 194 196 248 244 228 254 252 177 188 237 135 120 124 125 129 155 158 155 160 156 151 143 137 148 162 167 169 175 183 189 193 197 199 200 200 201 203 205 207 210 212 214 216 216 217 218 220 222 222 221 221 220 221 221 219 218 220 223 225 226 225 222 220 220 218 214 213 213 214 214 215 218 219 220 220 220 218 216 214 213 214 214 213 211
15 160 119 112 307 18 321 243 163 230 241 266 328 356 242 247 241 244 277 283 262 221 209 153 132 161 175 174 186 173 156 165 162 158 162 168 175 180 181 179 181 186 190 192 195 196 198 200 201 204 206 207 210 212 214 216 218 219 220 221 223 224 223 223 222 222 222 223 221 219 220 222 222 223 222 221 220 218 215 212 210 210 212 216 218 219 219 220 219 217 217 216 216 217 216 215 213
191 171 139 147 176 205 236 226 212 234 248 291 326 348 270 275 266 234 244 258 260 249 198 126 122 176 190 176 178 175 180 190 180 169 172 181 188 189 191 189 189 192 193 194 196 197 199 200 202 205 207 207 209 212 214 216 219 222 222 223 224 225 225 225 224 224 224 226 225 222 222 223 222 223 223 223 223 221 218 215 213 213 217 218 219 218 218 218 219 219 220 220 220 220 217 215 213
199 188 162 177 175 189 213 190 212 229 247 311 318 284 214 222 286 243 241 281 290 305 306 223 259 235 158 133 173 180 197 207 198 192 193 193 190 192 197 198 197 197 196 197 199 199 200 202 203 204 206 206 208 211 214 217 219 222 223 224 225 226 226 226 226 226 226 226 227 226 225 226 226 227 227 227 226 224 222 221 220 222 223 220 219 219 218 218 220 220 221 222 222 219 215 213 213
222 205 183 216 205 182 188 164 185 163 29 292 254 249 222 209 280 280 290 300 293 297 307 312 302 298 110 188 232 210 209 209 202 210 221 217 207 203 203 202 201 199 198 199 200 201 202 203 204 205 207 207 208 211 215 218 220 221 224 225 226 226 226 226 227 228 228 228 228 228 229 230 231 231 231 230 229 227 226 228 231 233 228 222 221 221 220 219 219 219 220 220 220 218 214 213 213
208 181 202 217 133 115 172 263 41 100 268 261 187 254 275 305 291 268 250 261 259 261 290 301 288 286 274 261 259 242 225 215 207 213 227 230 218 211 207 202 200 198 200 202 203 204 204 204 204 206 208 209 210 212 215 218 219 221 224 225 226 226 226 227 227 228 229 229 230 231 232 233 234 234 234 233 232 232 232 232 234 232 227 224 225 226 225 224 223 222 221 220 220 219 217 214 212
139 174 212 144 39 32 137 224 347 125 247 264 185 250 280 299 277 279 264 267 262 247 253 261 267 274 272 273 281 261 215 206 215 220 230 235 220 210 206 203 204 204 204 205 205 206 207 207 206 206 207 209 211 212 214 217 220 221 222 224 225 226 228 229 228 228 229 230 230 231 231 232 234 235 235 236 236 235 234 231 229 228 227 229 232 231 230 229 228 227 226 224 223 220 218 215 212
114 180 233 99 113 259 142 176 239 213 237 272 254 256 269 247 247 302 313 265 248 234 223 221 241 260 269 279 295 288 221 209 226 228 231 232 218 210 204 202 206 208 207 207 206 206 206 207 207 209 211 212 212 213 215 218 221 222 223 223 225 226 227 228 228 228 229 229 229 229 229 230 231 232 234 235 234 232 230 229 228 231 234 235 234 231 231 230 229 229 229 228 225 221 217 213 211
31 356 350 85 147 181 172 190 200 189 210 253 273 275 261 242 229 232 249 238 218 210 194 174 171 234 283 291 310 311 293 263 254 241 225 214 214 214 207 206 207 205 205 205 204 204 205 205 206 209 213 214 214 215 216 218 220 222 223 224 225 226 225 225 226 227 227 228 229 230 230 230 229 231 232 232 231 229 229 231 233 235 235 235 234 231 231 229 228 230 229 227 224 220 216 213 211
155 288 222 186 135 111 193 257 191 172 192 221 259 272 260 245 186 201 230 223 171 155 121 97 60 28 351 323 302 295 296 291 289 270 240 219 211 211 208 210 209 204 202 202 202 204 205 205 206 209 212 213 215 216 217 219 220 221 223 224 225 225 223 224 226 227 228 228 229 230 231 230 231 232 231 229 230 230 231 234 235 235 236 236 235 232 231 230 229 228 225 223 221 217 214 212 210
186 196 198 196 191 154 199 253 220 178 201 215 219 264 270 250 127 125 111 85 85 98 82 21 356 336 304 292 275 262 267 281 287 290 275 240 202 195 196 202 202 201 201 201 203 205 206 207 208 211 213 215 217 217 218 219 220 222 224 225 225 223 222 224 225 228 229 228 227 228 229 230 229 230 230 230 231 231 233 234 234 235 236 236 236 233 231 230 228 226 221 218 217 214 211 208 207